Time,TemperatureF,DewpointF,PressureIn,WindDirection,WindDirectionDegrees,WindSpeedMPH,WindSpeedGustMPH,Humidity,HourlyPrecipIn,Conditions,Clouds,dailyrainin,SoftwareType,DateUTC
2013-07-29 00:02:00,76.0,74.0,30.02,NW,314,0.0,1.0,94,0.00,,,0.00,,2013-07-29 04:02:00,
2013-07-29 00:12:00,76.0,74.0,30.02,NW,314,0.0,1.0,94,0.00,,,0.00,,2013-07-29 04:12:00,
2013-07-29 00:22:00,76.0,74.0,30.02,NW,314,0.0,1.0,94,0.00,,,0.00,,2013-07-29 04:22:00,
2013-07-29 00:32:00,76.0,74.0,30.02,NW,314,0.0,1.0,95,0.00,,,0.00,,2013-07-29 04:32:00,
2013-07-29 00:43:00,76.0,74.0,30.03,NW,314,0.0,1.0,95,0.00,,,0.00,,2013-07-29 04:43:00,
2013-07-29 00:53:00,75.0,73.0,30.02,NW,314,0.0,0.0,95,0.00,,,0.00,,2013-07-29 04:53:00,
2013-07-29 01:02:00,75.0,73.0,30.02,NW,314,0.0,1.0,95,0.00,,,0.00,,2013-07-29 05:02:00,
2013-07-29 01:22:00,75.0,73.0,30.02,ENE,70,0.0,0.0,95,0.00,,,0.00,,2013-07-29 05:22:00,
2013-07-29 01:32:00,75.0,73.0,30.02,ENE,70,0.0,0.0,95,0.00,,,0.00,,2013-07-29 05:32:00,
2013-07-29 01:53:00,75.0,74.0,30.02,ENE,70,0.0,0.0,96,0.00,,,0.00,,2013-07-29 05:53:00,
2013-07-29 02:02:00,75.0,74.0,30.02,ENE,69,0.0,0.0,96,0.00,,,0.00,,2013-07-29 06:02:00,
2013-07-29 02:12:00,75.0,74.0,30.02,ENE,69,0.0,0.0,96,0.00,,,0.00,,2013-07-29 06:12:00,
2013-07-29 02:22:00,74.0,73.0,30.02,ENE,70,0.0,0.0,96,0.00,,,0.00,,2013-07-29 06:22:00,
2013-07-29 02:32:00,75.0,74.0,30.02,ENE,68,0.0,0.0,97,0.00,,,0.00,,2013-07-29 06:32:00,
2013-07-29 02:43:00,74.0,73.0,30.02,ENE,68,0.0,0.0,96,0.00,,,0.00,,2013-07-29 06:43:00,
2013-07-29 02:52:00,74.0,73.0,30.01,ENE,68,0.0,0.0,96,0.00,,,0.00,,2013-07-29 06:52:00,
2013-07-29 03:02:00,74.0,73.0,30.01,ENE,68,0.0,0.0,97,0.00,,,0.00,,2013-07-29 07:02:00,
2013-07-29 03:12:00,74.0,73.0,30.01,ENE,68,0.0,0.0,97,0.00,,,0.00,,2013-07-29 07:12:00,
2013-07-29 03:23:00,74.0,73.0,30.01,ENE,68,0.0,0.0,97,0.00,,,0.00,,2013-07-29 07:23:00,
2013-07-29 03:33:00,74.0,73.0,30.01,ENE,68,0.0,0.0,97,0.00,,,0.00,,2013-07-29 07:33:00,
2013-07-29 03:43:00,74.0,73.0,30.02,ENE,68,0.0,0.0,97,0.00,,,0.00,,2013-07-29 07:43:00,
2013-07-29 03:53:00,74.0,73.0,30.02,ENE,68,0.0,0.0,97,0.00,,,0.00,,2013-07-29 07:53:00,
2013-07-29 04:02:00,74.0,73.0,30.02,ENE,68,0.0,0.0,97,0.00,,,0.00,,2013-07-29 08:02:00,
2013-07-29 04:12:00,74.0,73.0,30.02,ENE,68,0.0,0.0,97,0.00,,,0.00,,2013-07-29 08:12:00,
2013-07-29 04:22:00,73.0,72.0,30.02,ENE,68,0.0,0.0,97,0.00,,,0.00,,2013-07-29 08:22:00,
2013-07-29 04:33:00,73.0,72.0,30.03,ENE,68,0.0,0.0,97,0.00,,,0.00,,2013-07-29 08:33:00,
2013-07-29 04:42:00,73.0,72.0,30.02,ENE,68,0.0,0.0,97,0.00,,,0.00,,2013-07-29 08:42:00,
2013-07-29 05:02:00,73.0,72.0,30.03,ENE,68,0.0,0.0,97,0.00,,,0.00,,2013-07-29 09:02:00,
2013-07-29 05:12:00,73.0,72.0,30.03,ENE,68,0.0,0.0,97,0.00,,,0.00,,2013-07-29 09:12:00,
2013-07-29 05:22:00,73.0,72.0,30.03,ENE,68,0.0,0.0,97,0.00,,,0.00,,2013-07-29 09:22:00,
2013-07-29 05:33:00,72.0,71.0,30.03,ENE,68,0.0,0.0,97,0.00,,,0.00,,2013-07-29 09:33:00,
2013-07-29 05:43:00,72.0,71.0,30.03,ENE,68,0.0,0.0,97,0.00,,,0.00,,2013-07-29 09:43:00,
2013-07-29 05:53:00,72.0,71.0,30.03,ENE,68,0.0,0.0,97,0.00,,,0.00,,2013-07-29 09:53:00,
2013-07-29 06:14:00,72.0,71.0,30.04,ENE,68,0.0,0.0,97,0.00,,,0.00,,2013-07-29 10:14:00,
2013-07-29 06:25:00,72.0,71.0,30.05,ENE,68,0.0,0.0,97,0.00,,,0.00,,2013-07-29 10:25:00,
2013-07-29 06:37:00,72.0,71.0,30.05,ENE,68,0.0,0.0,98,0.00,,,0.00,,2013-07-29 10:37:00,
2013-07-29 06:48:00,72.0,71.0,30.05,ENE,68,0.0,0.0,97,0.00,,,0.00,,2013-07-29 10:48:00,
2013-07-29 06:54:00,72.0,71.0,30.05,ENE,68,0.0,0.0,97,0.00,,,0.00,,2013-07-29 10:54:00,
2013-07-29 07:05:00,72.0,71.0,30.06,ENE,68,0.0,0.0,98,0.00,,,0.00,,2013-07-29 11:05:00,
2013-07-29 07:15:00,72.0,71.0,30.06,ENE,68,0.0,0.0,98,0.00,,,0.00,,2013-07-29 11:15:00,
2013-07-29 07:24:00,72.0,71.0,30.06,ENE,68,0.0,0.0,98,0.00,,,0.00,,2013-07-29 11:24:00,
2013-07-29 07:37:00,72.0,71.0,30.06,ENE,68,0.0,0.0,98,0.00,,,0.00,,2013-07-29 11:37:00,
2013-07-29 07:44:00,72.0,71.0,30.07,ENE,68,0.0,0.0,98,0.00,,,0.00,,2013-07-29 11:44:00,
2013-07-29 08:09:00,73.0,72.0,30.08,ENE,68,0.0,0.0,98,0.00,,,0.00,,2013-07-29 12:09:00,
2013-07-29 08:27:00,73.0,72.0,30.08,ENE,68,0.0,0.0,98,0.00,,,0.00,,2013-07-29 12:27:00,
2013-07-29 08:35:00,74.0,73.0,30.08,ENE,68,0.0,0.0,98,0.00,,,0.00,,2013-07-29 12:35:00,
2013-07-29 08:46:00,76.0,75.0,30.09,ENE,69,0.0,0.0,98,0.00,,,0.00,,2013-07-29 12:46:00,
2013-07-29 08:55:00,77.0,76.0,30.09,SW,216,0.0,2.0,97,0.00,,,0.00,,2013-07-29 12:55:00,
2013-07-29 09:17:00,79.0,76.0,30.09,SSW,205,0.0,3.0,91,0.00,,,0.00,,2013-07-29 13:17:00,
2013-07-29 09:28:00,81.0,77.0,30.09,SW,217,0.0,2.0,88,0.00,,,0.00,,2013-07-29 13:28:00,
2013-07-29 09:36:00,81.0,77.0,30.09,SW,215,0.0,2.0,87,0.00,,,0.00,,2013-07-29 13:36:00,
2013-07-29 09:45:00,82.0,77.0,30.09,SW,221,0.0,2.0,85,0.00,,,0.00,,2013-07-29 13:45:00,
2013-07-29 09:54:00,83.0,78.0,30.09,SW,222,0.0,2.0,84,0.00,,,0.00,,2013-07-29 13:54:00,
2013-07-29 10:07:00,84.0,78.0,30.09,SE,128,0.0,1.0,81,0.00,,,0.00,,2013-07-29 14:07:00,
2013-07-29 10:13:00,84.0,77.0,30.09,SSW,212,1.0,3.0,79,0.00,,,0.00,,2013-07-29 14:13:00,
2013-07-29 10:35:00,85.0,78.0,30.09,South,186,0.0,1.0,80,0.00,,,0.00,,2013-07-29 14:35:00,
2013-07-29 10:55:00,85.0,77.0,30.09,SW,231,0.0,2.0,78,0.00,,,0.00,,2013-07-29 14:55:00,
2013-07-29 11:37:00,87.0,77.0,30.10,ENE,77,1.0,3.0,73,0.00,,,0.00,,2013-07-29 15:37:00,
2013-07-29 11:45:00,89.0,78.0,30.09,ENE,70,1.0,2.0,71,0.00,,,0.00,,2013-07-29 15:45:00,
2013-07-29 11:54:00,90.0,78.0,30.10,SE,142,1.0,2.0,69,0.00,,,0.00,,2013-07-29 15:54:00,
2013-07-29 12:39:00,90.0,78.0,30.09,SW,228,1.0,4.0,67,0.00,,,0.00,,2013-07-29 16:39:00,
2013-07-29 12:55:00,89.0,77.0,30.09,SE,131,1.0,1.0,67,0.00,,,0.00,,2013-07-29 16:55:00,
2013-07-29 13:08:00,91.0,76.0,30.08,SSW,201,0.0,3.0,62,0.00,,,0.00,,2013-07-29 17:08:00,
2013-07-29 13:41:00,91.0,78.0,30.08,South,172,0.0,2.0,67,0.00,,,0.00,,2013-07-29 17:41:00,
2013-07-29 14:07:00,81.0,73.0,30.08,West,267,2.0,6.0,78,0.02,,,0.02,,2013-07-29 18:07:00,
2013-07-29 15:37:00,75.0,73.0,30.07,NNE,33,1.0,2.0,95,0.01,,,0.24,,2013-07-29 19:37:00,
2013-07-29 15:45:00,75.0,73.0,30.08,NNE,25,0.0,2.0,95,0.01,,,0.24,,2013-07-29 19:45:00,
2013-07-29 15:54:00,75.0,73.0,30.09,ENE,61,0.0,3.0,95,0.01,,,0.24,,2013-07-29 19:54:00,
2013-07-29 16:36:00,73.0,71.0,30.09,SW,217,1.0,2.0,95,0.56,,,0.80,,2013-07-29 20:36:00,
2013-07-29 16:56:00,73.0,72.0,30.09,East,95,0.0,1.0,96,0.56,,,0.80,,2013-07-29 20:56:00,
2013-07-29 17:36:00,74.0,73.0,30.09,East,95,0.0,0.0,96,0.00,,,0.80,,2013-07-29 21:36:00,
2013-07-29 17:48:00,75.0,74.0,30.09,East,95,0.0,0.0,96,0.00,,,0.80,,2013-07-29 21:48:00,
2013-07-29 17:57:00,76.0,74.0,30.08,NE,44,1.0,2.0,95,0.00,,,0.80,,2013-07-29 21:57:00,
2013-07-29 18:17:00,77.0,74.0,30.06,NNE,20,1.0,2.0,91,0.00,,,0.80,,2013-07-29 22:17:00,
2013-07-29 18:44:00,80.0,76.0,30.06,NE,43,0.0,0.0,87,0.00,,,0.80,,2013-07-29 22:44:00,
2013-07-29 19:06:00,78.0,75.0,30.08,NE,42,0.0,0.0,91,0.00,,,0.80,,2013-07-29 23:06:00,
2013-07-29 19:14:00,78.0,75.0,30.08,NE,43,0.0,0.0,92,0.00,,,0.80,,2013-07-29 23:14:00,
2013-07-29 19:26:00,78.0,76.0,30.09,NE,43,0.0,0.0,93,0.00,,,0.80,,2013-07-29 23:26:00,
2013-07-29 19:35:00,78.0,75.0,30.10,NE,43,0.0,0.0,92,0.00,,,0.80,,2013-07-29 23:35:00,
2013-07-29 19:55:00,77.0,75.0,30.10,NE,43,0.0,1.0,94,0.00,,,0.80,,2013-07-29 23:55:00,
2013-07-29 20:08:00,77.0,75.0,30.11,WSW,244,0.0,1.0,94,0.00,,,0.80,,2013-07-30 00:08:00,
2013-07-29 20:18:00,77.0,75.0,30.11,WSW,244,0.0,1.0,94,0.00,,,0.80,,2013-07-30 00:18:00,
2013-07-29 20:26:00,77.0,75.0,30.11,SW,222,1.0,2.0,93,0.00,,,0.80,,2013-07-30 00:26:00,
2013-07-29 20:35:00,76.0,74.0,30.11,ENE,65,0.0,2.0,94,0.00,,,0.80,,2013-07-30 00:35:00,
2013-07-29 20:54:00,75.0,73.0,30.11,ENE,65,0.0,0.0,94,0.00,,,0.80,,2013-07-30 00:54:00,
2013-07-29 21:06:00,74.0,72.0,30.11,ENE,65,0.0,0.0,95,0.00,,,0.80,,2013-07-30 01:06:00,
2013-07-29 21:16:00,74.0,72.0,30.12,ENE,65,0.0,0.0,95,0.00,,,0.80,,2013-07-30 01:16:00,
2013-07-29 21:56:00,73.0,72.0,30.14,ENE,65,0.0,0.0,96,0.00,,,0.80,,2013-07-30 01:56:00,
2013-07-29 22:13:00,73.0,72.0,30.14,ENE,65,0.0,0.0,96,0.00,,,0.80,,2013-07-30 02:13:00,
2013-07-29 22:38:00,73.0,72.0,30.15,ENE,65,0.0,0.0,97,0.00,,,0.80,,2013-07-30 02:38:00,
2013-07-29 23:08:00,73.0,72.0,30.15,ENE,65,0.0,0.0,97,0.00,,,0.80,,2013-07-30 03:08:00,